Regional Weather Roundup
Issued by NWS

Home | Current Version | Previous Version | Graphics & Text | Print | Product List | Glossary On
Versions: 1 2 3 4 5 6 7 8 9 10 11 12 13 14 15 16 17 18 19 20 21 22 23 24 25 26 27 28 29 30 31 32 33 34 35 36 37 38 39 40 41 42 43 44 45 46 47 48 49 50
000
ASUS43 KLSX 252157
RWRMO

WEATHER SUMMARY FOR MISSOURI
NATIONAL WEATHER SERVICE SPRINGFIELD MO
500 PM CDT MON SEP 25 2017

NOTE: "FAIR" INDICATES FEW OR NO CLOUDS BELOW 12,000 FEET WITH NO
       SIGNIFICANT WEATHER AND/OR OBSTRUCTIONS TO VISIBILITY.
       CURRENT SKY AND/OR WEATHER CONDITIONS ARE NOT AVAILABLE FOR
       CHILLICOTHE AND FARMINGTON.

MOZ001>031-035>038-043-044-053-054-252300-
...NORTHERN AND WESTERN MISSOURI...

CITY           SKY/WX    TMP DP  RH WIND       PRES   REMARKS
KANSAS CTY INT PTSUNNY   82  66  58 S16       29.87S
LEE`S SUMMIT   SUNNY     85  65  51 S13       29.88S
ST JOSEPH      PTSUNNY   76  65  68 NW18G24   29.86R

$$
MOZ066>068-077>081-088>096-101>105-252300-
...SOUTHWEST MISSOURI...

CITY           SKY/WX    TMP DP  RH WIND       PRES   REMARKS
SPRINGFIELD    SUNNY     87  58  37 S15       29.90F
JOPLIN         MOSUNNY   86  65  49 S12       29.88F
BRANSON        MOSUNNY   86  57  37 SE7       29.92F

$$
MOZ032>034-039>042-045>050-055>058-069>072-252300-
...CENTRAL MISSOURI...

CITY           SKY/WX    TMP DP  RH WIND       PRES   REMARKS
COLUMBIA       NOT AVBL
JEFFERSON CITY CLOUDY    83  67  58 SW6       29.88F
ROLLA          SUNNY     88  58  36 S12       29.92F
SEDALIA        SUNNY     88  66  48 S13       29.90F HX  90
WARRENSBURG    SUNNY     82  63  51 S8        29.87F

$$
MOZ051-052-059>065-252300-
...EAST CENTRAL MISSOURI...

CITY           SKY/WX    TMP DP  RH WIND       PRES   REMARKS
ST LOUIS INTL  MOSUNNY   91  61  36 S12       29.90F HX  91

$$
MOZ072>076-082>087-097>100-106>115-252300-
...SOUTH CENTRAL AND SOUTHEAST MISSOURI...

CITY           SKY/WX    TMP DP  RH WIND       PRES   REMARKS
CAPE GIRARDEAU SUNNY     88  61  40 SE9       29.91F
POPLAR BLUFF   PTSUNNY   89  63  41 VRB3      29.91S HX  90
WEST PLAINS    MOSUNNY   86  60  41 SE9       29.95F

$$


USA.gov is the U.S. government's official web portal to all federal, state and local government web resources and services.